Flag for Trinidad and Tobago Weather past 2 weeks in Scarborough, Trinidad and Tobago

Now
75 °F

Passing clouds.


Feels Like: 75 °F
Forecast: 75 / 85 °F
Wind: No wind

Location: Crown Pt./ Scarborou

Current Time: Feb 1, 2015 at 12:45:44 AM

Latest Report: Feb 1, 2015 at 12:00 AM


Visibility: N/A

Pressure: 29.98 "Hg

Humidity: 83%

Dew point: 70 °F

Location of ScarboroughLocation

Historic Weather in Scarborough — Graph

°F

Scarborough temperature yesterday

Maximum temperature yesterday: 86 °F (at 11:00 AM)
Minimum temperature yesterday: 75 °F (at 5:00 AM)
Average temperature yesterday: 81 °F

Past Weeks' High & Low Weather Summary

 TemperatureHumidityPressure
High86 °F (Jan 17, 12:00 PM)94% (Jan 19, 2:00 AM)30.04 "Hg (Jan 19, 2:00 AM)
Low73 °F (Jan 23, 5:00 AM)59% (Jan 23, 1:00 PM)29.89 "Hg (Jan 19, 4:00 PM)
Average80 °F76%29.96 "Hg
* Reported Jan 16 11:00 PM — Jan 31 11:00 PM, Scarborough, Weather by CustomWeather, © 2014

Note: Actual official high and low records may vary slightly from our data, if they occured in-between our weather recording intervals... More about our weather records

Advertising

Scarborough weather history for previous 24 hours

 ConditionsComfort  
Time TempWeatherWind HumidityBarometerVisibility
11:00 PM
Jan 31
77 °FPassing clouds.No wind83%29.98 "HgN/A
10:00 PM77 °FPassing clouds.No wind83%29.98 "HgN/A
9:00 PM77 °FPassing clouds.No wind83%29.98 "HgN/A
8:00 PM79 °FPassing clouds.No wind89%29.95 "HgN/A
7:00 PM79 °FPassing clouds.5 mph79%29.95 "HgN/A
6:00 PM81 °FPassing clouds.9 mph74%29.95 "HgN/A
5:00 PM82 °FPassing clouds.12 mph70%29.92 "HgN/A
3:00 PM84 °FScattered showers. Passing clouds.14 mph70%29.92 "HgN/A
2:00 PM84 °FPassing clouds.15 mph70%29.95 "HgN/A
1:00 PM84 °FPassing clouds.15 mph70%29.95 "Hg6 mi
12:00 PM86 °FScattered clouds.17 mph62%29.98 "HgN/A
11:00 AM86 °FScattered clouds.17 mph66%30.01 "HgN/A
10:00 AM84 °FPassing clouds.17 mph70%30.01 "HgN/A
9:00 AM82 °FPassing clouds.14 mph74%30.01 "HgN/A
8:00 AM81 °FPassing clouds.12 mph79%29.98 "HgN/A
7:00 AM77 °FPassing clouds.6 mph79%29.95 "HgN/A
6:00 AM77 °FPassing clouds.6 mph79%29.92 "HgN/A
5:00 AM75 °FPassing clouds.No wind89%29.92 "HgN/A
1:00 AM79 °FPassing clouds.8 mph79%29.95 "HgN/A
12:00 AM79 °FPassing clouds.6 mph79%29.95 "HgN/A
Weather by CustomWeather, © 2014

See weather overviewHow to use our weather pages